• In Uzbekistan
  • List of Countries
  • For 7 days
  • Water Temperature
  • Satellite Maps
  • Weather Map
  • Weather Widgets
  • user-avatar
    Login

    Hourly Weather Vize

    Today, 25 June, Monday

    Time Temperature Precipitation Wind Pressure Humidity
    00:00 +18°C° 0 mm 4 mps 745 mmHg 70%
    01:00 +17°C° 0 mm 4 mps 744 mmHg 72%
    02:00 +16°C° 0 mm 3 mps 744 mmHg 75%
    03:00 +15°C° 0 mm 4 mps 744 mmHg 75%
    04:00 +15°C° 0 mm 4 mps 744 mmHg 76%
    05:00 +15°C° 0 mm 4 mps 744 mmHg 76%
    06:00 +17°C° 0 mm 5 mps 744 mmHg 70%
    07:00 +20°C° 0 mm 6 mps 744 mmHg 64%
    08:00 +22°C° 0 mm 6 mps 744 mmHg 55%
    09:00 +23°C° 0 mm 6 mps 744 mmHg 52%
    10:00 +24°C° 0 mm 7 mps 744 mmHg 49%
    11:00 +24°C° 0 mm 7 mps 744 mmHg 47%
    12:00 +26°C° 0 mm 7 mps 744 mmHg 47%
    13:00 +26°C° 0 mm 7 mps 744 mmHg 48%
    14:00 +26°C° 0 mm 8 mps 744 mmHg 49%
    15:00 +26°C° 0 mm 8 mps 744 mmHg 51%
    16:00 +24°C° 0 mm 8 mps 743 mmHg 54%
    17:00 +24°C° 0 mm 8 mps 743 mmHg 57%
    18:00 +22°C° 0 mm 7 mps 743 mmHg 64%
    19:00 +21°C° 0 mm 7 mps 743 mmHg 70%
    20:00 +20°C° 0 mm 6 mps 743 mmHg 77%
    21:00 +20°C° 0 mm 6 mps 743 mmHg 80%
    22:00 +20°C° 0 mm 6 mps 743 mmHg 83%
    23:00 +20°C° 0 mm 6 mps 743 mmHg 86%

    Tomorrow, 26 June, Tuesday

    Time Temperature Precipitation Wind Pressure Humidity
    00:00 +20°C° 0.1 mm 6 mps 743 mmHg 86%
    01:00 +20°C° 0.1 mm 6 mps 743 mmHg 87%
    02:00 +20°C° 0.1 mm 6 mps 742 mmHg 87%
    03:00 +19°C° 0 mm 6 mps 742 mmHg 87%
    04:00 +19°C° 0 mm 6 mps 742 mmHg 87%
    05:00 +19°C° 0 mm 6 mps 741 mmHg 86%
    06:00 +20°C° 0 mm 6 mps 741 mmHg 82%
    07:00 +22°C° 0 mm 7 mps 741 mmHg 77%
    08:00 +23°C° 0 mm 7 mps 741 mmHg 72%
    09:00 +24°C° 0 mm 7 mps 741 mmHg 68%
    10:00 +24°C° 0 mm 7 mps 741 mmHg 64%
    11:00 +26°C° 0 mm 7 mps 741 mmHg 59%
    12:00 +27°C° 0 mm 7 mps 741 mmHg 59%
    13:00 +27°C° 0 mm 7 mps 740 mmHg 58%
    14:00 +27°C° 0 mm 7 mps 740 mmHg 57%
    15:00 +27°C° 0 mm 7 mps 740 mmHg 59%
    16:00 +26°C° 0 mm 7 mps 739 mmHg 62%
    17:00 +26°C° 0 mm 7 mps 739 mmHg 64%
    18:00 +24°C° 0.4 mm 6 mps 739 mmHg 71%
    19:00 +23°C° 0.4 mm 6 mps 739 mmHg 78%
    20:00 +21°C° 0.4 mm 5 mps 739 mmHg 85%
    21:00 +21°C° 2.1 mm 5 mps 739 mmHg 87%
    22:00 +21°C° 2.1 mm 5 mps 739 mmHg 89%
    23:00 +21°C° 2.1 mm 4 mps 739 mmHg 92%

    Day after tomorrow, 27 June, Wednesday

    Time Temperature Precipitation Wind Pressure Humidity
    00:00 +20°C° 1.9 mm 3 mps 739 mmHg 92%
    01:00 +20°C° 1.9 mm 3 mps 738 mmHg 92%
    02:00 +20°C° 1.9 mm 2 mps 738 mmHg 92%
    03:00 +19°C° 0.3 mm 2 mps 738 mmHg 92%
    04:00 +20°C° 0.3 mm 1 mps 738 mmHg 92%
    05:00 +20°C° 0.3 mm 1 mps 738 mmHg 92%
    06:00 +21°C° 0 mm 1 mps 738 mmHg 87%
    07:00 +23°C° 0 mm 1 mps 738 mmHg 81%
    08:00 +24°C° 0 mm 1 mps 738 mmHg 76%
    09:00 +25°C° 0.3 mm 2 mps 738 mmHg 70%
    10:00 +27°C° 0.3 mm 2 mps 738 mmHg 64%
    11:00 +28°C° 0.3 mm 3 mps 737 mmHg 58%
    12:00 +27°C° 0.3 mm 2 mps 737 mmHg 59%
    13:00 +27°C° 0.3 mm 2 mps 737 mmHg 60%
    14:00 +27°C° 0.3 mm 1 mps 737 mmHg 61%
    15:00 +27°C° 0 mm 2 mps 736 mmHg 58%
    16:00 +28°C° 0 mm 2 mps 736 mmHg 54%
    17:00 +29°C° 0 mm 2 mps 736 mmHg 51%
    18:00 +27°C° 0 mm 2 mps 736 mmHg 58%
    19:00 +25°C° 0 mm 2 mps 736 mmHg 66%
    20:00 +24°C° 0 mm 2 mps 736 mmHg 74%
    21:00 +23°C° 0.1 mm 2 mps 736 mmHg 77%
    22:00 +22°C° 0.1 mm 1 mps 736 mmHg 80%
    23:00 +22°C° 0.1 mm 1 mps 736 mmHg 83%

    28 June, Thursday

    Time Temperature Precipitation Wind Pressure Humidity
    00:00 +21°C° 0.4 mm 1 mps 736 mmHg 84%
    01:00 +21°C° 0.4 mm 1 mps 736 mmHg 84%
    02:00 +21°C° 0.4 mm 1 mps 736 mmHg 85%
    03:00 +21°C° 0.3 mm 1 mps 736 mmHg 85%
    04:00 +20°C° 0.3 mm 1 mps 736 mmHg 86%
    05:00 +20°C° 0.3 mm 1 mps 736 mmHg 86%
    06:00 +21°C° 0.1 mm 1 mps 736 mmHg 81%
    07:00 +23°C° 0.1 mm 2 mps 737 mmHg 76%
    08:00 +25°C° 0.1 mm 2 mps 737 mmHg 71%
    09:00 +25°C° 0.3 mm 2 mps 737 mmHg 69%
    10:00 +26°C° 0.3 mm 3 mps 737 mmHg 67%
    11:00 +27°C° 0.3 mm 3 mps 737 mmHg 65%
    12:00 +27°C° 0.7 mm 3 mps 737 mmHg 65%
    13:00 +27°C° 0.7 mm 3 mps 737 mmHg 65%
    14:00 +27°C° 0.7 mm 3 mps 736 mmHg 66%
    15:00 +27°C° 1.6 mm 3 mps 737 mmHg 67%
    16:00 +27°C° 1.6 mm 3 mps 737 mmHg 69%
    17:00 +26°C° 1.6 mm 3 mps 737 mmHg 71%
    18:00 +25°C° 0.3 mm 2 mps 737 mmHg 75%
    19:00 +24°C° 0.3 mm 2 mps 737 mmHg 79%
    20:00 +23°C° 0.3 mm 2 mps 737 mmHg 83%
    21:00 +21°C° 0 mm 2 mps 737 mmHg 84%
    22:00 +20°C° 0 mm 3 mps 737 mmHg 86%
    23:00 +19°C° 0 mm 3 mps 738 mmHg 88%

    29 June, Friday

    Time Temperature Precipitation Wind Pressure Humidity
    00:00 +19°C° 0 mm 3 mps 738 mmHg 89%
    01:00 +19°C° 0 mm 3 mps 738 mmHg 91%
    02:00 +18°C° 0 mm 3 mps 738 mmHg 92%
    03:00 +18°C° 0 mm 3 mps 738 mmHg 92%
    04:00 +18°C° 0 mm 3 mps 738 mmHg 92%
    05:00 +18°C° 0 mm 2 mps 738 mmHg 92%
    06:00 +20°C° 0 mm 3 mps 738 mmHg 85%
    07:00 +21°C° 0 mm 3 mps 738 mmHg 78%
    08:00 +24°C° 0 mm 3 mps 738 mmHg 71%
    09:00 +25°C° 0 mm 4 mps 738 mmHg 65%
    10:00 +26°C° 0 mm 4 mps 738 mmHg 59%
    11:00 +28°C° 0 mm 4 mps 738 mmHg 53%
    12:00 +28°C° 0.3 mm 4 mps 738 mmHg 53%
    13:00 +29°C° 0.3 mm 4 mps 738 mmHg 52%
    14:00 +29°C° 0.3 mm 4 mps 738 mmHg 52%
    15:00 +29°C° 0.2 mm 4 mps 738 mmHg 53%
    16:00 +28°C° 0.2 mm 4 mps 738 mmHg 53%
    17:00 +28°C° 0.2 mm 4 mps 738 mmHg 54%
    18:00 +26°C° 0.1 mm 4 mps 738 mmHg 58%
    19:00 +25°C° 0.1 mm 3 mps 738 mmHg 62%
    20:00 +22°C° 0.1 mm 3 mps 738 mmHg 66%
    21:00 +21°C° 0 mm 3 mps 738 mmHg 70%
    22:00 +20°C° 0 mm 3 mps 738 mmHg 74%
    23:00 +19°C° 0 mm 3 mps 738 mmHg 77%

    30 June, Saturday

    Time Temperature Precipitation Wind Pressure Humidity
    00:00 +19°C° 0 mm 3 mps 738 mmHg 80%
    01:00 +19°C° 0 mm 3 mps 738 mmHg 83%
    02:00 +18°C° 0 mm 3 mps 738 mmHg 85%
    03:00 +18°C° 0 mm 3 mps 738 mmHg 87%
    04:00 +18°C° 0 mm 2 mps 738 mmHg 88%
    05:00 +18°C° 0 mm 2 mps 738 mmHg 90%
    06:00 +20°C° 0 mm 2 mps 738 mmHg 82%
    07:00 +23°C° 0 mm 2 mps 738 mmHg 75%
    08:00 +24°C° 0 mm 2 mps 739 mmHg 68%
    09:00 +26°C° 0 mm 2 mps 739 mmHg 62%
    10:00 +27°C° 0 mm 2 mps 739 mmHg 57%
    11:00 +29°C° 0 mm 2 mps 739 mmHg 51%
    12:00 +29°C° 0.2 mm 2 mps 738 mmHg 51%
    13:00 +29°C° 0.2 mm 2 mps 738 mmHg 50%
    14:00 +30°C° 0.2 mm 2 mps 738 mmHg 50%
    15:00 +30°C° 0.3 mm 2 mps 738 mmHg 51%
    16:00 +29°C° 0.3 mm 2 mps 738 mmHg 53%
    17:00 +29°C° 0.3 mm 2 mps 738 mmHg 55%
    18:00 +27°C° 0.3 mm 2 mps 738 mmHg 61%
    19:00 +26°C° 0.3 mm 2 mps 738 mmHg 67%
    20:00 +24°C° 0.3 mm 2 mps 739 mmHg 73%
    21:00 +24°C° 0.1 mm 2 mps 739 mmHg 75%
    22:00 +23°C° 0.1 mm 1 mps 739 mmHg 78%
    23:00 +22°C° 0.1 mm 1 mps 739 mmHg 80%
    Show more